[[{"header":{"parameterUnit":"m.s-1","parameterCategory":1,"la1":30.2991,"la2":30.254,"lo1":-89.0895,"lo2":-89.0444,"dy":0.0017,"dx":0.0017,"nx":28,"ny":28,"refTime":"2025-12-20T09:00:00:Z","depth":0,"parameterNumber":2,"parameterNumberName":"U-component_of_WINDS"},"data":[0,0,0,0,0,0,0,0,0,0,0,0,0,0,0,0,0,0,0,0,0,0,0,0,0,0,0,0,0,0,0,0,0,0,0,0,0,0,0,0,0,0,0,0,0,0,0,0,0,0,0,0,0,0,0,0,0,0,-2.4648,-2.4648,0,-2.4644,-2.4643,-2.4643,-2.4597,-2.4596,-2.4595,-2.4594,-2.4589,-2.459,-2.4591,0,0,0,0,0,0,0,0,0,0,0,0,0,-2.4618,-2.4619,-2.4648,-2.4648,-2.4648,-2.4644,-2.4643,-2.4643,-2.4597,-2.4596,-2.4595,-2.4593,-2.4589,-2.459,-2.4591,0,0,0,0,0,0,0,0,0,0,0,0,0,-2.4624,-2.4619,-2.4648,-2.4625,-2.4622,-2.4644,-2.4643,-2.4643,-2.4598,-2.4596,-2.4594,-2.4593,-2.4589,-2.459,-2.4591,-2.4635,0,0,-2.4596,-2.4596,0,0,0,0,0,0,0,0,-2.4624,-2.4625,-2.4628,-2.4626,-2.4624,-2.4619,-2.4631,-2.4641,-2.4598,-2.4607,-2.4594,-2.4592,-2.4601,-2.4601,-2.4604,-2.4635,-2.4634,-2.4596,-2.4597,-2.4597,-2.4598,0,0,0,0,0,0,0,-2.4623,-2.4625,-2.4646,-2.4628,-2.4626,-2.4614,-2.4613,-2.4633,-2.4614,-2.4606,-2.4603,-2.4603,-2.4599,-2.4603,-2.4603,-2.4634,-2.4596,-2.4597,-2.4598,-2.4599,-2.4701,-2.4702,0,0,0,0,0,0,-2.4626,-2.4625,-2.4646,-2.4646,-2.4619,-2.4616,-2.4615,-2.4622,-2.4613,-2.461,-2.4604,-2.4601,-2.4601,-2.4602,-2.4603,-2.4653,-2.4597,-2.4599,-2.46,-2.4699,-2.4701,-2.4703,0,0,0,0,0,0,-2.4626,-2.4628,-2.4647,-2.4635,-2.4636,-2.4619,-2.4627,-2.4623,-2.4627,-2.4612,-2.4608,-2.4611,-2.46,-2.4601,-2.4627,-2.4652,-2.4599,-2.4601,-2.4697,-2.4699,-2.4702,-2.4753,0,0,0,0,0,0,-2.4625,-2.4629,-2.4645,-2.4635,-2.4637,-2.4671,-2.4629,-2.4624,-2.4629,-2.4624,-2.4618,-2.4615,-2.4598,-2.4625,-2.4629,-2.4653,-2.4602,-2.4694,-2.4698,-2.4701,-2.4749,-2.4757,-2.4764,0,0,0,0,0,-2.4624,-2.4659,-2.4646,-2.4649,-2.4657,-2.4672,-2.4673,-2.4654,-2.4631,-2.4647,-2.4638,-2.4615,-2.4649,-2.4628,-2.4632,-2.4657,-2.4692,-2.4697,-2.4701,-2.4746,-2.4756,-2.4764,0,0,0,0,0,0,-2.4672,-2.4658,-2.4642,-2.4676,-2.4676,-2.4664,-2.4684,-2.4665,-2.4671,-2.4666,-2.4642,-2.4641,-2.4671,-2.4667,-2.4644,-2.4699,-2.4667,-2.4672,-2.47,-2.4709,-2.4717,-2.4716,-2.4603,0,0,0,0,0,-2.4686,-2.47,-2.4687,-2.4718,-2.4718,-2.4702,-2.4708,-2.4693,-2.4692,-2.4691,-2.4684,-2.4684,-2.4694,-2.4702,-2.4711,-2.4749,-2.4746,-2.4768,-2.4776,-2.4782,-2.4786,-2.4806,-2.4815,-2.4717,-2.4717,-2.4716,0,0,-2.4716,-2.471,-2.472,-2.4727,-2.4725,-2.474,-2.4702,-2.4719,-2.473,-2.4694,-2.4718,-2.4713,-2.4711,-2.4743,-2.4757,-2.4741,-2.4813,-2.4787,-2.4792,-2.4793,-2.4811,-2.482,-2.4828,-2.4719,-2.4719,-2.4718,0,0,-2.4778,-2.4775,-2.48,-2.4799,-2.4797,-2.4785,-2.4792,-2.4784,-2.4779,-2.4803,-2.4776,-2.4789,-2.4808,-2.4807,-2.481,-2.4873,-2.4851,-2.4877,-2.4916,-2.4935,-2.4943,-2.4949,-2.4971,-2.4979,-2.4881,-2.4881,-2.4881,0,-2.4815,-2.4836,-2.4815,-2.4834,-2.4838,-2.4807,-2.4832,-2.4832,-2.4833,-2.4837,-2.4818,-2.4842,-2.4839,-2.487,-2.4885,-2.4889,-2.4895,-2.4876,-2.4943,-2.495,-2.4956,-2.4976,-2.4984,-2.4884,-2.4884,-2.4884,-2.4883,0,-2.4882,-2.4897,-2.4917,-2.4919,-2.4925,-2.4947,-2.493,-2.4939,-2.4924,-2.4915,-2.494,-2.4935,-2.4942,-2.4949,-2.4935,-2.4979,-2.4969,-2.4948,-2.4915,-2.4968,-2.4987,-2.4995,-2.4889,-2.4887,-2.4887,-2.4886,0,0,-2.4972,-2.4962,-2.497,-2.497,-2.4966,-2.4977,-2.4998,-2.5006,-2.5014,-2.5016,-2.5032,-2.505,-2.503,-2.5033,-2.5019,-2.5036,-2.5085,-2.5012,-2.5012,-2.5025,-2.5133,-2.5148,-2.5157,-2.5072,-2.5073,-2.5074,-2.5133,0,-2.503,-2.5065,-2.5047,-2.5084,-2.5098,-2.5069,-2.5087,-2.5087,-2.5079,-2.509,-2.5081,-2.5093,-2.5067,-2.5069,-2.5084,-2.5076,-2.5106,-2.5072,-2.5086,-2.5087,-2.5086,-2.5167,-2.5183,-2.5238,-2.514,-2.5141,-2.5142,0,-2.5102,-2.5108,-2.5146,-2.5139,-2.5144,-2.5161,-2.5166,-2.5177,-2.5176,-2.5169,-2.5173,-2.5155,-2.5175,-2.5144,-2.5171,-2.5148,-2.5154,-2.5151,-2.5152,-2.5151,-2.5117,-2.5167,-2.5255,-2.5263,-2.5153,-2.5152,-2.5152,0,-2.5163,-2.518,-2.5205,-2.5206,-2.5199,-2.5212,-2.5209,-2.5207,-2.5212,-2.5217,-2.5221,-2.5228,-2.5232,-2.5239,-2.5223,-2.5202,-2.5252,-2.522,-2.5247,-2.5247,-2.5257,-2.5257,-2.5346,-2.5263,-2.5263,-2.5263,-2.5263,0,-2.5229,-2.5253,-2.5232,-2.5247,-2.5273,-2.5254,-2.528,-2.5275,-2.5273,-2.5287,-2.5263,-2.5277,-2.5256,-2.5267,-2.5256,-2.528,-2.5282,-2.5277,-2.5273,-2.5278,-2.5279,-2.528,-2.5275,-2.5265,-2.5265,-2.5264,-2.5264,0,-2.53,-2.5287,-2.5312,-2.5304,-2.5303,-2.5322,-2.5315,-2.5329,-2.532,-2.5338,-2.5341,-2.5327,-2.534,-2.5325,-2.5336,-2.5328,-2.5361,-2.5352,-2.5361,-2.5358,-2.5385,-2.5382,-2.5477,-2.5488,-2.54,-2.5401,-2.5402,0,-2.5343,-2.5361,-2.5355,-2.5362,-2.5361,-2.5374,-2.538,-2.5361,-2.5368,-2.5369,-2.5383,-2.5393,-2.54,-2.5422,-2.5412,-2.5421,-2.5412,-2.5444,-2.5413,-2.5417,-2.5411,-2.5409,-2.541,-2.545,-2.5451,-2.5452,-2.5453,0,-2.5419,-2.5412,-2.5421,-2.5428,-2.5435,-2.544,-2.5443,-2.545,-2.5431,-2.544,-2.5453,-2.5458,-2.547,-2.548,-2.5487,-2.5484,-2.5465,-2.5463,-2.5469,-2.5474,-2.5478,-2.5475,-2.5377,-2.5461,-2.546,-2.5459,-2.5459,-2.5458,-2.5476,-2.5491,-2.5489,-2.55,-2.55,-2.5504,-2.5516,-2.5509,-2.5519,-2.5527,-2.5516,-2.5531,-2.553,-2.5536,-2.5537,-2.5548,-2.5534,-2.5544,-2.5546,-2.5548,-2.5552,-2.5477,-2.555,-2.5549,-2.5549,-2.5549,-2.5549,0,-2.555,-2.5548,-2.5558,-2.5563,-2.5572,-2.5554,-2.5556,-2.5565,-2.5578,-2.5579,-2.5587,-2.5601,-2.5612,-2.5604,-2.5612,-2.5623,-2.5615,-2.5626,-2.5624,-2.5624,-2.5564,-2.5557,-2.5633,-2.5633,-2.5633,-2.5633,-2.5633,-2.5633,-2.559,-2.5613,-2.5606,-2.5629,-2.5627,-2.5641,-2.5644,-2.5647,-2.5648,-2.5665,-2.5673,-2.5668,-2.5666,-2.5674,-2.5683,-2.568,-2.5684,-2.5698,-2.5693,-2.5637,-2.5628,-2.562,-2.5614,-2.57,-2.57,-2.5751,-2.5751,-2.5752]},{"header":{"parameterUnit":"m.s-1","parameterCategory":1,"la1":30.2991,"la2":30.254,"lo1":-89.0895,"lo2":-89.0444,"dy":0.0017,"dx":0.0017,"nx":28,"ny":28,"refTime":"2025-12-20T09:00:00:Z","depth":0,"parameterNumber":3,"parameterNumberName":"V-component_of_WINDS"},"data":[0,0,0,0,0,0,0,0,0,0,0,0,0,0,0,0,0,0,0,0,0,0,0,0,0,0,0,0,0,0,0,0,0,0,0,0,0,0,0,0,0,0,0,0,0,0,0,0,0,0,0,0,0,0,0,0,0,0,0.5609,0.5609,0,0.5574,0.5574,0.5574,0.5566,0.5566,0.5566,0.5567,0.5528,0.5527,0.5525,0,0,0,0,0,0,0,0,0,0,0,0,0,0.5666,0.5665,0.5609,0.5609,0.5608,0.5574,0.5574,0.5573,0.5566,0.5566,0.5566,0.5567,0.5528,0.5527,0.5525,0,0,0,0,0,0,0,0,0,0,0,0,0,0.5637,0.5664,0.5609,0.56,0.5599,0.5575,0.5574,0.5573,0.5566,0.5566,0.5567,0.5567,0.5529,0.5527,0.5525,0.5506,0,0,0.5519,0.5518,0,0,0,0,0,0,0,0,0.5639,0.5635,0.5602,0.5601,0.56,0.5575,0.558,0.555,0.5566,0.5578,0.5567,0.5567,0.5543,0.554,0.5532,0.5504,0.5502,0.5519,0.5518,0.5517,0.5517,0,0,0,0,0,0,0,0.5641,0.5636,0.5595,0.5602,0.56,0.5597,0.5594,0.5574,0.5559,0.5577,0.5577,0.5573,0.5542,0.5534,0.5531,0.5501,0.5519,0.5517,0.5516,0.5515,0.5455,0.5455,0,0,0,0,0,0,0.5645,0.5638,0.5596,0.5594,0.5621,0.5596,0.5592,0.5582,0.5559,0.5556,0.5573,0.5573,0.5537,0.5534,0.553,0.5506,0.5517,0.5515,0.5514,0.5456,0.5455,0.5455,0,0,0,0,0,0,0.5646,0.5641,0.5598,0.5616,0.561,0.5595,0.5584,0.5582,0.5574,0.5556,0.5552,0.5567,0.5538,0.5533,0.5512,0.5505,0.5514,0.5513,0.5456,0.5456,0.5455,0.5458,0,0,0,0,0,0,0.5648,0.5641,0.5635,0.5616,0.5609,0.5581,0.5584,0.5581,0.5571,0.557,0.555,0.5547,0.5538,0.5515,0.551,0.5502,0.5511,0.5457,0.5456,0.5455,0.5459,0.5458,0.5457,0,0,0,0,0,0.565,0.5636,0.5634,0.5629,0.5601,0.5581,0.5577,0.5568,0.557,0.5563,0.5551,0.5547,0.5506,0.5513,0.5507,0.5499,0.5457,0.5456,0.5455,0.5459,0.5458,0.5457,0,0,0,0,0,0,0.5653,0.5633,0.5631,0.5611,0.5598,0.558,0.557,0.5566,0.5551,0.5551,0.5539,0.5535,0.5515,0.5505,0.5512,0.5479,0.5482,0.548,0.5487,0.5485,0.5485,0.5488,0.551,0,0,0,0,0,0.5652,0.5638,0.5621,0.5605,0.5599,0.5586,0.5577,0.5571,0.5556,0.555,0.5537,0.5521,0.5505,0.5495,0.5478,0.5457,0.5453,0.5449,0.5448,0.5447,0.5446,0.5434,0.5432,0.5452,0.5452,0.5452,0,0,0.5648,0.5636,0.5628,0.5606,0.5595,0.558,0.5581,0.5565,0.5554,0.5547,0.5527,0.5517,0.5499,0.5478,0.5468,0.5469,0.5439,0.5446,0.5446,0.5444,0.5433,0.5431,0.5429,0.5451,0.5451,0.5451,0,0,0.5635,0.5624,0.561,0.5599,0.5583,0.5574,0.5571,0.5553,0.5547,0.5527,0.5521,0.5507,0.5479,0.5467,0.5457,0.544,0.5436,0.5435,0.5431,0.5419,0.5418,0.5417,0.5411,0.5409,0.5433,0.5433,0.5433,0,0.5633,0.5612,0.5603,0.5589,0.5579,0.5573,0.5558,0.5548,0.5526,0.5519,0.5521,0.5486,0.5474,0.545,0.5446,0.5438,0.5434,0.5438,0.5419,0.5418,0.5416,0.541,0.5408,0.5433,0.5433,0.5433,0.5433,0,0.561,0.5596,0.5586,0.5568,0.5557,0.5542,0.553,0.552,0.5515,0.5506,0.5486,0.5471,0.5452,0.5446,0.544,0.5421,0.5423,0.5422,0.5424,0.5414,0.5409,0.5407,0.5433,0.5433,0.5433,0.5433,0,0,0.5598,0.5575,0.5572,0.5564,0.5545,0.5534,0.5518,0.5501,0.5493,0.5478,0.5465,0.5442,0.5442,0.543,0.5423,0.5413,0.5401,0.5413,0.5413,0.5412,0.538,0.5382,0.5379,0.5398,0.5398,0.5398,0.5382,0,0.5583,0.5558,0.555,0.5528,0.5514,0.5508,0.5495,0.5482,0.5473,0.546,0.5449,0.5433,0.5433,0.5427,0.5417,0.5405,0.5395,0.5406,0.5386,0.5385,0.5391,0.5376,0.5377,0.5363,0.538,0.5379,0.5379,0,0.5563,0.5549,0.5527,0.5511,0.5505,0.5493,0.5477,0.5464,0.5449,0.5443,0.5431,0.5425,0.5408,0.5412,0.5388,0.5396,0.5387,0.538,0.5379,0.5377,0.5382,0.5374,0.5359,0.5357,0.5375,0.5376,0.5376,0,0.5557,0.5533,0.5517,0.551,0.549,0.5483,0.5474,0.5459,0.545,0.5435,0.5428,0.5412,0.5402,0.5389,0.5378,0.5382,0.5356,0.5358,0.535,0.535,0.5345,0.5346,0.5328,0.5339,0.5339,0.5339,0.5339,0,0.5542,0.5528,0.5514,0.5504,0.5489,0.5479,0.5464,0.5454,0.5441,0.5429,0.5422,0.541,0.5396,0.5382,0.5373,0.5356,0.5351,0.5346,0.5343,0.5347,0.5347,0.5341,0.5342,0.5338,0.5338,0.5339,0.5339,0,0.5533,0.5523,0.5505,0.5489,0.5484,0.5474,0.5459,0.5449,0.544,0.5424,0.5419,0.5405,0.5388,0.5376,0.5354,0.5348,0.5329,0.5327,0.5335,0.5334,0.5327,0.5328,0.5305,0.5302,0.5314,0.5314,0.5314,0,0.5524,0.5514,0.5497,0.5489,0.5481,0.5467,0.5458,0.5447,0.5437,0.542,0.5411,0.5394,0.5381,0.5354,0.5341,0.5324,0.5321,0.5314,0.5319,0.5322,0.5322,0.5323,0.5322,0.5314,0.5314,0.5314,0.5314,0,0.551,0.5506,0.5493,0.5479,0.5468,0.5456,0.5443,0.5436,0.5424,0.5413,0.5397,0.5386,0.5364,0.5347,0.5329,0.5319,0.5314,0.5313,0.531,0.5313,0.5319,0.5316,0.5334,0.5313,0.5313,0.5313,0.5313,0.5313,0.5501,0.5492,0.5479,0.5465,0.5455,0.5444,0.5433,0.5423,0.541,0.5392,0.5387,0.537,0.5355,0.533,0.532,0.5306,0.5306,0.5302,0.5301,0.5301,0.5301,0.5321,0.5303,0.5303,0.5303,0.5303,0.5303,0,0.5487,0.5479,0.5466,0.5449,0.5438,0.5436,0.5422,0.5412,0.5398,0.5385,0.5372,0.5353,0.5337,0.5323,0.5306,0.5297,0.5294,0.5293,0.5294,0.5291,0.5302,0.5306,0.5295,0.5295,0.5295,0.5295,0.5295,0.5295,0.5479,0.5463,0.5457,0.5437,0.5428,0.5412,0.5404,0.5394,0.5383,0.5363,0.535,0.5341,0.5328,0.531,0.5295,0.5291,0.5285,0.5284,0.528,0.529,0.5291,0.5291,0.5295,0.5283,0.5283,0.5271,0.5271,0.5271]}]]